Ellsworth Air Force Base, SD

5:15 AM MST on February 11, 2016 (GMT -0700)
Ellsworth Air Force Base

Weather History for KRCA - November, 2012

Change the Weather History Date:

Saturday, November 3, 2012

  Actual Average Record
Temperature  
Mean Temperature 40 °F -  
Max Temperature 55 °F 48 °F 68 °F (2001)
Min Temperature 26 °F 27 °F 19 °F (2003)
Degree Days  
Heating Degree Days 25    
Moisture  
Dew Point 29 °F    
Average Humidity 88    
Maximum Humidity 100    
Minimum Humidity 45    
Precipitation  
Precipitation 0.00 in - - ()
Sea Level Pressure  
Sea Level Pressure 30.20 in    
Wind  
Wind Speed 4 mph (SW)    
Max Wind Speed 12 mph    
Max Gust Speed -    
Visibility 5 miles    
Events Fog    
Averages and records for this station are not official NWS values.
T = Trace of Precipitation, MM = Missing Value Source: NWS Daily Summary

Daily Weather History Graph

Daily Weather History Graph

Search for Another Location

Airport or City:

Trip Planner

Search our weather history database for the weather conditions in past years. The results will help you decide how hot, cold, wet, or windy it might be!

Date:

Astronomy

Nov. 03, 2012 Rise Set
Actual Time 7:32 AM MDT 5:38 PM MDT
Civil Twilight 7:02 AM MDT 6:09 PM MDT
Nautical Twilight 6:27 AM MDT 6:43 PM MDT
Astronomical Twilight 5:54 AM MDT 7:17 PM MDT
Moon 9:18 PM MDT (11/3) 11:42 AM MDT (11/3)
Length of Visible Light 11h 06m
Length of Day
10h 06m
Waning Gibbous, 80% of the Moon is Illuminated
Nov 3
Waning Gibbous
Nov 6
Last Quarter
Nov 13
New
Nov 20
First Quarter
Nov 28
Full

Hourly Weather History & Observations

Time (MDT) Temp. Windchill Dew Point Humidity Pressure Visibility Wind Dir Wind Speed Gust Speed Precip Events Conditions
12:55 AM 38.3 °F 30.9 °F 34.7 °F 87% 30.18 in 10.0 mi North 11.5 mph - N/A   Clear
1:55 AM 35.8 °F 28.3 °F 33.3 °F 91% 30.17 in 10.0 mi NNW 10.4 mph - N/A   Clear
2:55 AM 36.9 °F 31.4 °F 33.6 °F 88% 30.17 in 10.0 mi North 6.9 mph - N/A   Mostly Cloudy
3:42 AM 32.0 °F 27.5 °F 30.2 °F 93% 30.18 in 10.0 mi WSW 4.6 mph - N/A   Light Drizzle
4:55 AM 33.4 °F - 31.5 °F 92% 30.18 in 10.0 mi Calm Calm - 0.00 in   Drizzle
5:48 AM 28.4 °F 24.6 °F 26.6 °F 93% 30.21 in 2.5 mi SW 3.5 mph - N/A   Light Freezing Rain
5:49 AM 28.4 °F 24.6 °F 26.6 °F 93% 30.21 in 2.0 mi SW 3.5 mph - N/A   Light Freezing Rain
5:50 AM 28.4 °F 24.6 °F 26.6 °F 93% 30.21 in 1.5 mi SW 3.5 mph - N/A   Light Freezing Rain
5:52 AM 28.4 °F - 26.6 °F 93% 30.21 in 1.2 mi Calm Calm - N/A   Light Freezing Rain
5:55 AM 28.6 °F - 27.5 °F 96% 30.21 in 1.2 mi Calm Calm - 0.00 in   Light Freezing Rain
5:57 AM 28.4 °F - 26.6 °F 93% 30.21 in 1.5 mi Calm Calm - N/A   Light Freezing Rain
5:58 AM 28.4 °F - 26.6 °F 93% 30.21 in 1.8 mi Calm Calm - N/A   Light Freezing Rain
5:59 AM 26.6 °F - 26.6 °F 100% 30.21 in 2.5 mi Calm Calm - N/A   Light Freezing Rain
6:00 AM 26.6 °F - 24.8 °F 93% 30.21 in 3.0 mi Calm Calm - N/A   Light Freezing Rain
6:15 AM 28.4 °F 24.6 °F 26.6 °F 93% 30.21 in 2.5 mi SW 3.5 mph - N/A   Light Freezing Rain
6:16 AM 28.4 °F 24.6 °F 26.6 °F 93% 30.21 in 2.0 mi SSW 3.5 mph - N/A   Light Freezing Rain
6:17 AM 28.4 °F 24.6 °F 26.6 °F 93% 30.21 in 1.5 mi SSW 3.5 mph - N/A   Light Freezing Rain
6:18 AM 28.4 °F 24.6 °F 26.6 °F 93% 30.21 in 1.2 mi SW 3.5 mph - N/A   Light Freezing Rain
6:19 AM 28.4 °F 24.6 °F 26.6 °F 93% 30.21 in 1.0 mi SW 3.5 mph - N/A   Light Freezing Rain
6:20 AM 28.4 °F 24.6 °F 26.6 °F 93% 30.21 in 0.8 mi WSW 3.5 mph - N/A   Light Freezing Rain
6:21 AM 28.4 °F 24.6 °F 26.6 °F 93% 30.21 in 0.5 mi WSW 3.5 mph - N/A Fog Light Freezing Fog
6:24 AM 28.4 °F 23.3 °F 26.6 °F 93% 30.21 in 0.5 mi WSW 4.6 mph - N/A Fog Light Freezing Fog
6:25 AM 28.4 °F 23.3 °F 26.6 °F 93% 30.21 in 0.5 mi WSW 4.6 mph - N/A Fog Light Freezing Fog
6:26 AM 28.4 °F 23.3 °F 26.6 °F 93% 30.21 in 0.5 mi WSW 4.6 mph - N/A Fog Light Freezing Fog
6:29 AM 28.4 °F 24.6 °F 26.6 °F 93% 30.21 in 0.5 mi WSW 3.5 mph - N/A Fog Light Freezing Fog
6:32 AM 28.4 °F 24.6 °F 26.6 °F 93% 30.21 in 0.8 mi West 3.5 mph - N/A   Light Freezing Rain
6:35 AM 28.4 °F - 26.6 °F 93% 30.21 in 1.0 mi Calm Calm - N/A   Light Freezing Rain
6:37 AM 28.4 °F - 26.6 °F 93% 30.21 in 1.2 mi Calm Calm - N/A   Light Freezing Rain
6:38 AM 28.4 °F - 26.6 °F 93% 30.21 in 1.5 mi Calm Calm - N/A   Light Freezing Rain
6:39 AM 28.4 °F - 26.6 °F 93% 30.21 in 1.8 mi Calm Calm - N/A   Light Freezing Rain
6:43 AM 26.6 °F - 26.6 °F 100% 30.21 in 1.5 mi Calm Calm - N/A   Light Freezing Rain
6:51 AM 28.4 °F - 26.6 °F 93% 30.22 in 2.0 mi Calm Calm - N/A   Light Freezing Rain
6:52 AM 28.4 °F - 26.6 °F 93% 30.22 in 2.5 mi Calm Calm - N/A   Light Freezing Rain
6:53 AM 28.4 °F - 26.6 °F 93% 30.22 in 3.0 mi Calm Calm - N/A   Light Freezing Rain
6:55 AM 28.0 °F - 26.8 °F 95% 30.22 in 7.0 mi Calm Calm - 0.00 in   Light Freezing Rain
7:02 AM 28.4 °F - 26.6 °F 93% 30.21 in 2.0 mi Calm Calm - N/A   Light Freezing Rain
7:03 AM 28.4 °F - 26.6 °F 93% 30.21 in 1.5 mi Calm Calm - N/A   Light Freezing Rain
7:04 AM 28.4 °F - 26.6 °F 93% 30.21 in 1.2 mi Calm Calm - N/A   Light Freezing Rain
7:05 AM 28.4 °F - 26.6 °F 93% 30.21 in 1.0 mi Calm Calm - N/A   Light Freezing Rain
7:06 AM 28.4 °F - 26.6 °F 93% 30.21 in 0.8 mi Calm Calm - N/A   Light Freezing Rain
7:13 AM 30.2 °F - 30.2 °F 100% 30.21 in 1.0 mi Calm Calm - N/A   Light Freezing Rain
7:19 AM 28.4 °F - 28.4 °F 100% 30.21 in 1.2 mi Calm Calm - N/A   Light Freezing Rain
7:24 AM 28.4 °F 23.3 °F 28.4 °F 100% 30.22 in 1.5 mi SW 4.6 mph - N/A   Light Freezing Rain
7:25 AM 28.4 °F 23.3 °F 28.4 °F 100% 30.22 in 1.8 mi SW 4.6 mph - N/A   Light Freezing Rain
7:26 AM 28.4 °F 23.3 °F 28.4 °F 100% 30.22 in 2.5 mi SW 4.6 mph - N/A   Light Freezing Rain
7:27 AM 28.4 °F 24.6 °F 26.6 °F 93% 30.22 in 4.0 mi SW 3.5 mph - N/A   Light Freezing Rain
7:55 AM 28.9 °F - 27.7 °F 95% 30.23 in 10.0 mi Calm Calm - 0.00 in   Light Freezing Rain
8:55 AM 33.6 °F - 32.0 °F 94% 30.22 in 10.0 mi Calm Calm - 0.00 in   Drizzle
9:55 AM 40.5 °F 38.4 °F 34.7 °F 80% 30.22 in 10.0 mi ESE 3.5 mph - 0.00 in   Light Drizzle
10:02 AM 41.0 °F 38.0 °F 35.6 °F 81% 30.21 in 10.0 mi ESE 4.6 mph - N/A   Scattered Clouds
10:55 AM 45.1 °F 41.4 °F 37.6 °F 75% 30.19 in 10.0 mi SSE 6.9 mph - 0.00 in   Clear
11:55 AM 48.4 °F - 35.2 °F 60% 30.17 in 10.0 mi Calm Calm - N/A   Partly Cloudy
12:55 PM 50.2 °F - 36.0 °F 58% 30.15 in 10.0 mi Calm Calm - N/A   Clear
1:55 PM 53.2 °F - 35.1 °F 50% 30.14 in 10.0 mi SE 9.2 mph - N/A   Partly Cloudy
2:55 PM 54.7 °F - 34.7 °F 47% 30.12 in 10.0 mi Calm Calm - N/A   Clear
3:55 PM 54.3 °F - 33.4 °F 45% 30.14 in 10.0 mi Calm Calm - N/A   Clear
4:55 PM 52.3 °F - 34.5 °F 51% 30.14 in 10.0 mi Calm Calm - N/A   Clear
5:55 PM 46.9 °F - 34.7 °F 62% 30.17 in 10.0 mi Calm Calm - N/A   Clear
6:55 PM 44.2 °F 41.0 °F 34.3 °F 68% 30.20 in 10.0 mi ESE 5.8 mph - N/A   Clear
7:55 PM 40.6 °F - 33.4 °F 75% 30.19 in 10.0 mi Calm Calm - N/A   Clear
8:55 PM 38.8 °F 32.6 °F 33.3 °F 80% 30.20 in 10.0 mi ESE 9.2 mph - N/A   Clear
9:55 PM 35.8 °F 30.9 °F 32.0 °F 86% 30.19 in 10.0 mi SSE 5.8 mph - N/A   Clear
10:55 PM 34.7 °F 29.6 °F 31.5 °F 88% 30.17 in 10.0 mi South 5.8 mph - N/A   Clear
11:55 PM 34.2 °F 27.5 °F 31.5 °F 90% 30.14 in 10.0 mi SSE 8.1 mph - N/A   Clear